K4DNM Weather Reports


Display with metric or nautical units.
time (UTC)temp
F
wind
direction
speed
MPH
gust
MPH
rain 1hr
in
rain 24hr
in
rain mn
in
humidity
%
barometer
mb
20260901003829 79 249 0.0 1.0 0.00 0.00 0.00 84 1016.7
20260901003327 80 0 0.0 1.0 0.00 0.00 0.00 82 1016.6
20260901002822 80 0 0.0 1.0 0.00 0.00 0.00 82 1016.6
20260901002318 80 233 0.0 1.0 0.00 0.00 0.00 81 1016.5
20260901001818 80 0 0.0 1.0 0.00 0.00 0.00 79 1016.5
20260901001315 81 0 0.0 1.0 0.00 0.00 0.00 80 1016.5
20260901000813 81 206 0.0 1.0 0.00 0.00 0.00 79 1016.5
20260901000314 81 0 0.0 1.0 0.00 0.00 0.00 79 1016.5
20260831235810 82 204 0.0 2.0 0.00 0.00 0.00 77 1016.5
20260831235311 82 198 0.0 2.0 0.00 0.00 0.00 78 1016.5
20260831234807 83 232 0.0 1.0 0.00 0.00 0.00 75 1016.5
20260831234307 83 0 0.0 1.0 0.00 0.00 0.00 75 1016.4
20260831233806 83 0 0.0 1.0 0.00 0.00 0.00 74 1016.5
20260831233306 84 0 0.0 1.0 0.00 0.00 0.00 73 1016.4
20260831232807 84 83 0.0 1.0 0.00 0.00 0.00 73 1016.5
20260831232307 84 0 0.0 1.0 0.00 0.00 0.00 73 1016.5
20260831231805 84 0 0.0 2.0 0.00 0.00 0.00 73 1016.5
20260831231528 84 167 0.0 2.0 0.00 0.00 0.00 71 1016.5
20260831231409 84 167 0.0 2.0 0.00 0.00 0.00 71 1016.5
20260831230801 84 0 0.0 0.0 0.00 0.00 0.00 71 1016.5
20260831230300 85 0 0.0 0.0 0.00 0.00 0.00 70 1016.4
20260831225758 85 0 0.0 1.0 0.00 0.00 0.00 68 1016.4
20260831225258 85 0 0.0 1.0 0.00 0.00 0.00 67 1016.4
20260831224756 85 0 0.0 1.0 0.00 0.00 0.00 66 1016.3
20260831224513 85 0 0.0 1.0 0.00 0.00 0.00 66 1016.2
20260831224400 85 0 0.0 1.0 0.00 0.00 0.00 66 1016.2
20260831223753 86 0 0.0 1.0 0.00 0.00 0.00 65 1016.2
20260831223305 86 0 0.0 1.0 0.00 0.00 0.00 64 1016.2
20260831222750 87 238 0.0 1.0 0.00 0.00 0.00 64 1016.2
20260831222250 87 0 0.0 1.0 0.00 0.00 0.00 63 1016.2
20260831222010 88 0 0.0 1.0 0.00 0.00 0.00 63 1016.2
20260831221852 88 0 0.0 1.0 0.00 0.00 0.00 63 1016.2
20260831221251 89 0 0.0 1.0 0.00 0.00 0.00 61 1016.2
20260831220744 89 0 0.0 1.0 0.00 0.00 0.00 60 1016.2
20260831220256 91 0 0.0 1.0 0.00 0.00 0.00 58 1016.2
20260831215742 92 0 0.0 1.0 0.00 0.00 0.00 56 1016.3
20260831215500 92 0 0.0 2.0 0.00 0.00 0.00 53 1016.3
20260831215344 92 0 0.0 2.0 0.00 0.00 0.00 53 1016.3
20260831214739 93 223 0.0 2.0 0.00 0.00 0.00 54 1016.4
20260831214239 93 0 0.0 1.0 0.00 0.00 0.00 55 1016.5
20260831213737 94 0 0.0 2.0 0.00 0.00 0.00 54 1016.5
20260831213234 94 0 0.0 2.0 0.00 0.00 0.00 54 1016.5
20260831212731 94 256 0.0 2.0 0.00 0.00 0.00 49 1016.5
20260831212231 94 0 0.0 2.0 0.00 0.00 0.00 50 1016.5
20260831211728 95 211 1.0 2.0 0.00 0.00 0.00 49 1016.6
20260831211228 95 227 1.0 2.0 0.00 0.00 0.00 48 1016.6
20260831210740 95 0 0.0 2.0 0.00 0.00 0.00 50 1016.6
20260831210226 95 0 0.0 2.0 0.00 0.00 0.00 50 1016.6
20260831205722 95 0 1.0 3.0 0.00 0.00 0.00 48 1016.6
20260831205221 95 228 1.0 3.0 0.00 0.00 0.00 51 1016.6
20260831204720 95 0 1.0 3.0 0.00 0.00 0.00 50 1016.6
20260831204220 95 0 1.0 3.0 0.00 0.00 0.00 52 1016.6
20260831203720 96 258 0.0 3.0 0.00 0.00 0.00 51 1016.7
20260831203220 96 322 0.0 2.0 0.00 0.00 0.00 50 1016.7
20260831202716 95 0 1.0 2.0 0.00 0.00 0.00 49 1016.8
20260831202439 95 227 1.0 2.0 0.00 0.00 0.00 50 1016.9
20260831202321 95 227 1.0 2.0 0.00 0.00 0.00 50 1016.9
20260831201727 94 0 1.0 4.0 0.00 0.00 0.00 52 1016.8
20260831201212 93 357 1.0 4.0 0.00 0.00 0.00 50 1016.8
20260831200936 94 190 2.0 4.0 0.00 0.00 0.00 51 1016.9
20260831200815 94 190 2.0 4.0 0.00 0.00 0.00 51 1016.9
20260831200211 94 213 1.0 4.0 0.00 0.00 0.00 52 1016.9
20260831195712 93 210 2.0 4.0 0.00 0.00 0.00 50 1016.9
20260831195212 93 206 2.0 5.0 0.00 0.00 0.00 52 1017.0
20260831194927 94 188 2.0 5.0 0.00 0.00 0.00 52 1017.0
20260831194812 94 188 2.0 5.0 0.00 0.00 0.00 52 1017.0
20260831194210 94 201 1.0 5.0 0.00 0.00 0.00 52 1017.1
20260831193708 95 185 1.0 4.0 0.00 0.00 0.00 55 1017.2
20260831193435 95 84 1.0 2.0 0.00 0.00 0.00 53 1017.2
20260831193313 95 84 1.0 2.0 0.00 0.00 0.00 53 1017.2
20260831192708 95 259 1.0 2.0 0.00 0.00 0.00 52 1017.3
20260831192205 94 0 1.0 3.0 0.00 0.00 0.00 52 1017.3
20260831191923 94 256 1.0 3.0 0.00 0.00 0.00 52 1017.3
20260831191807 94 256 1.0 3.0 0.00 0.00 0.00 52 1017.3
20260831191649 94 332 1.0 3.0 0.00 0.00 0.00 54 1017.4
20260831191309 94 332 1.0 3.0 0.00 0.00 0.00 54 1017.4
20260831190701 94 247 0.0 2.0 0.00 0.00 0.00 53 1017.5
20260831190212 94 317 0.0 2.0 0.00 0.00 0.00 55 1017.5
20260831185653 93 329 1.0 3.0 0.00 0.00 0.00 56 1017.6
20260831185412 93 0 1.0 3.0 0.00 0.00 0.00 55 1017.7
20260831185256 93 0 1.0 3.0 0.00 0.00 0.00 55 1017.7
20260831184650 94 83 1.0 3.0 0.00 0.00 0.00 50 1017.8
20260831184636 94 0 1.0 3.0 0.00 0.00 0.00 50 1017.8
20260831184252 94 0 1.0 3.0 0.00 0.00 0.00 50 1017.8
20260831183647 93 359 1.0 3.0 0.00 0.00 0.00 52 1017.8
20260831183145 93 328 1.0 3.0 0.00 0.00 0.00 50 1017.8
20260831182644 94 300 1.0 3.0 0.00 0.00 0.00 56 1017.8
20260831182143 93 140 1.0 3.0 0.00 0.00 0.00 50 1017.9
20260831181641 94 184 1.0 3.0 0.00 0.00 0.00 50 1017.9
20260831181140 93 0 1.0 2.0 0.00 0.00 0.00 49 1017.9
20260831180858 93 335 1.0 2.0 0.00 0.00 0.00 59 1018.0
20260831180745 93 335 1.0 2.0 0.00 0.00 0.00 59 1018.0
20260831180136 92 0 1.0 2.0 0.00 0.00 0.00 55 1018.0
20260831175635 91 0 1.0 3.0 0.00 0.00 0.00 53 1018.0
20260831175134 91 108 1.0 4.0 0.00 0.00 0.00 53 1018.1
20260831174632 91 223 2.0 4.0 0.00 0.00 0.00 56 1018.1
20260831174346 92 153 1.0 4.0 0.00 0.00 0.00 57 1018.1
20260831174234 92 153 1.0 4.0 0.00 0.00 0.00 57 1018.1
20260831173624 91 0 1.0 4.0 0.00 0.00 0.00 59 1018.1
20260831173400 91 194 2.0 4.0 0.00 0.00 0.00 59 1018.1
20260831173241 91 194 2.0 4.0 0.00 0.00 0.00 59 1018.1
20260831172619 91 109 1.0 3.0 0.00 0.00 0.00 59 1018.1
20260831172120 91 176 1.0 4.0 0.00 0.00 0.00 61 1018.1
20260831171614 91 26 1.0 4.0 0.00 0.00 0.00 58 1018.1
20260831171340 91 216 1.0 3.0 0.00 0.00 0.00 58 1018.2
20260831171218 91 216 1.0 3.0 0.00 0.00 0.00 58 1018.2
20260831170613 91 346 1.0 3.0 0.00 0.00 0.00 57 1018.2
20260831170122 91 107 1.0 3.0 0.00 0.00 0.00 56 1018.2
20260831165610 91 356 1.0 4.0 0.00 0.00 0.00 59 1018.3
20260831165554 91 224 1.0 4.0 0.00 0.00 0.00 60 1018.3
20260831165216 91 224 1.0 4.0 0.00 0.00 0.00 60 1018.3
20260831164608 91 53 1.0 3.0 0.00 0.00 0.00 60 1018.3
20260831164108 90 2 1.0 4.0 0.00 0.00 0.00 61 1018.4
20260831163609 90 343 2.0 4.0 0.00 0.00 0.00 62 1018.4
20260831163102 90 330 1.0 4.0 0.00 0.00 0.00 62 1018.5
20260831162603 91 17 2.0 4.0 0.00 0.00 0.00 60 1018.6
20260831162100 92 1 1.0 2.0 0.00 0.00 0.00 58 1018.6
20260831161601 92 345 1.0 3.0 0.00 0.00 0.00 58 1018.6
20260831161101 91 0 1.0 3.0 0.00 0.00 0.00 60 1018.6
20260831160600 91 203 1.0 3.0 0.00 0.00 0.00 60 1018.6
20260831160109 91 0 1.0 2.0 0.00 0.00 0.00 58 1018.7
20260831155557 91 321 1.0 2.0 0.00 0.00 0.00 58 1018.8
20260831155056 90 184 1.0 3.0 0.00 0.00 0.00 61 1018.8
20260831154819 89 0 1.0 3.0 0.00 0.00 0.00 63 1018.8
20260831154658 89 0 1.0 3.0 0.00 0.00 0.00 63 1018.8
20260831154054 90 20 1.0 3.0 0.00 0.00 0.00 63 1018.8
20260831153554 89 312 1.0 3.0 0.00 0.00 0.00 63 1018.9
20260831153317 89 0 1.0 5.0 0.00 0.00 0.00 66 1018.9
20260831153157 89 0 1.0 5.0 0.00 0.00 0.00 66 1018.9
20260831152551 89 328 1.0 5.0 0.00 0.00 0.00 64 1018.9
20260831152050 89 197 1.0 3.0 0.00 0.00 0.00 64 1018.9
20260831151814 89 0 1.0 2.0 0.00 0.00 0.00 64 1018.9
20260831151652 89 0 1.0 2.0 0.00 0.00 0.00 64 1018.9
20260831151047 89 34 1.0 4.0 0.00 0.00 0.00 65 1018.9
20260831150545 89 295 1.0 4.0 0.00 0.00 0.00 66 1018.9
20260831150039 88 220 1.0 2.0 0.00 0.00 0.00 65 1018.9
20260831145537 88 0 1.0 5.0 0.00 0.00 0.00 67 1018.8
20260831145038 88 176 1.0 5.0 0.00 0.00 0.00 68 1018.8
20260831144534 88 210 1.0 3.0 0.00 0.00 0.00 66 1018.8
20260831144029 87 0 1.0 4.0 0.00 0.00 0.00 67 1018.8
20260831143528 87 0 1.0 4.0 0.00 0.00 0.00 69 1018.8
20260831143029 88 2 1.0 4.0 0.00 0.00 0.00 70 1018.8
20260831142527 88 275 1.0 3.0 0.00 0.00 0.00 68 1018.8
20260831142023 87 0 1.0 3.0 0.00 0.00 0.00 70 1018.8
20260831141522 87 0 1.0 3.0 0.00 0.00 0.00 73 1018.8
20260831141019 87 285 0.0 3.0 0.00 0.00 0.00 72 1018.8
20260831140520 87 255 0.0 2.0 0.00 0.00 0.00 72 1018.8
20260831140017 86 270 0.0 2.0 0.00 0.00 0.00 75 1018.7
20260831135516 86 0 0.0 3.0 0.00 0.00 0.00 76 1018.6
20260831135014 86 0 0.0 3.0 0.00 0.00 0.00 74 1018.6
20260831134732 85 175 1.0 2.0 0.00 0.00 0.00 75 1018.6
20260831134618 85 175 1.0 2.0 0.00 0.00 0.00 75 1018.6
20260831134011 85 318 1.0 3.0 0.00 0.00 0.00 75 1018.7
20260831133510 85 338 1.0 3.0 0.00 0.00 0.00 74 1018.7
20260831133008 85 0 0.0 2.0 0.00 0.00 0.00 76 1018.7
20260831132507 85 0 0.0 2.0 0.00 0.00 0.00 78 1018.6
20260831132005 85 0 0.0 1.0 0.00 0.00 0.00 77 1018.6
20260831131506 84 0 0.0 2.0 0.00 0.00 0.00 80 1018.6
20260831131002 83 0 0.0 2.0 0.00 0.00 0.00 80 1018.6
20260831130500 83 348 0.0 2.0 0.00 0.00 0.00 80 1018.7
20260831130000 82 205 0.0 2.0 0.00 0.00 0.00 81 1018.7
20260831125501 82 0 0.0 2.0 0.00 0.00 0.00 83 1018.7
20260831125222 81 0 0.0 2.0 0.00 0.00 0.00 85 1018.7
20260831125103 81 0 0.0 2.0 0.00 0.00 0.00 85 1018.7
20260831124503 80 225 0.0 2.0 0.00 0.00 0.00 86 1018.7
20260831124220 79 0 0.0 3.0 0.00 0.00 0.00 91 1018.7
20260831124104 79 0 0.0 3.0 0.00 0.00 0.00 91 1018.7
20260831123458 78 0 0.0 3.0 0.00 0.00 0.00 91 1018.7
20260831122955 78 0 0.0 2.0 0.00 0.00 0.00 94 1018.7
20260831122507 77 0 0.0 1.0 0.00 0.00 0.00 95 1018.7
20260831121954 77 0 0.0 1.0 0.00 0.00 0.00 96 1018.6
20260831121454 76 0 0.0 1.0 0.00 0.00 0.00 96 1018.6
20260831120949 75 0 0.0 1.0 0.00 0.00 0.00 97 1018.5
20260831120445 74 0 0.0 0.0 0.00 0.00 0.00 97 1018.4
20260831115946 74 0 0.0 0.0 0.00 0.00 0.00 98 1018.4
20260831115706 74 0 0.0 2.0 0.00 0.00 0.00 98 1018.4
20260831115548 74 0 0.0 2.0 0.00 0.00 0.00 98 1018.4
20260831114943 73 0 0.0 2.0 0.00 0.00 0.00 98 1018.4
20260831114442 73 175 0.0 2.0 0.00 0.00 0.00 98 1018.5
20260831113943 72 0 0.0 1.0 0.00 0.00 0.00 98 1018.5
20260831113442 72 0 0.0 1.0 0.00 0.00 0.00 98 1018.5
20260831112944 71 0 0.0 1.0 0.00 0.00 0.00 98 1018.6
20260831112702 71 0 0.0 1.0 0.00 0.00 0.00 98 1018.5
20260831112547 71 0 0.0 1.0 0.00 0.00 0.00 98 1018.5
20260831111943 70 0 0.0 0.0 0.00 0.00 0.00 98 1018.6
20260831111443 70 0 0.0 0.0 0.00 0.00 0.00 98 1018.5
20260831110943 69 0 0.0 0.0 0.00 0.00 0.00 98 1018.5
20260831110443 69 0 0.0 0.0 0.00 0.00 0.00 98 1018.4
20260831105943 69 0 0.0 1.0 0.00 0.00 0.00 98 1018.4
20260831105429 69 0 0.0 1.0 0.00 0.00 0.00 98 1018.4
20260831104929 69 0 0.0 1.0 0.00 0.00 0.00 98 1018.3
20260831104430 69 0 0.0 1.0 0.00 0.00 0.00 98 1018.3
20260831103930 69 158 0.0 1.0 0.00 0.00 0.00 98 1018.3
20260831103429 69 0 0.0 1.0 0.00 0.00 0.00 98 1018.3
20260831102930 69 0 0.0 0.0 0.00 0.00 0.00 98 1018.3
20260831102431 69 0 0.0 0.0 0.00 0.00 0.00 98 1018.2
20260831101930 69 0 0.0 1.0 0.00 0.00 0.00 98 1018.1
20260831101650 69 0 0.0 1.0 0.00 0.00 0.00 98 1018.0
20260831101535 69 0 0.0 1.0 0.00 0.00 0.00 98 1018.0
20260831100943 69 0 0.0 0.0 0.00 0.00 0.00 98 1018.0
20260831100430 69 0 0.0 1.0 0.00 0.00 0.00 98 1018.0
20260831095915 69 0 0.0 1.0 0.00 0.00 0.00 98 1018.0
20260831095417 69 0 0.0 0.0 0.00 0.00 0.00 98 1018.1
20260831094916 69 0 0.0 0.0 0.00 0.00 0.00 98 1018.1
20260831094416 69 0 0.0 0.0 0.00 0.00 0.00 98 1018.1
20260831093916 69 0 0.0 0.0 0.00 0.00 0.00 98 1018.1
20260831093416 69 0 0.0 1.0 0.00 0.00 0.00 98 1018.1
20260831093139 69 0 0.0 1.0 0.00 0.00 0.00 98 1018.1
20260831093021 69 0 0.0 1.0 0.00 0.00 0.00 98 1018.1
20260831092420 70 0 0.0 0.0 0.00 0.00 0.00 98 1018.1
20260831091920 70 0 0.0 1.0 0.00 0.00 0.00 98 1018.1
20260831091420 70 0 0.0 2.0 0.00 0.00 0.00 98 1018.0
20260831090918 70 0 0.0 2.0 0.00 0.00 0.00 98 1018.0
20260831090404 70 0 0.0 1.0 0.00 0.00 0.00 98 1018.0
20260831085904 70 0 0.0 1.0 0.00 0.00 0.00 98 1018.0
20260831085405 70 179 0.0 2.0 0.00 0.00 0.00 98 1017.9
20260831084904 70 0 1.0 2.0 0.00 0.00 0.00 98 1017.9
20260831084405 70 196 1.0 2.0 0.00 0.00 0.00 98 1017.9
20260831083905 70 0 0.0 2.0 0.00 0.00 0.00 98 1017.9
20260831083405 70 0 0.0 0.0 0.00 0.00 0.00 98 1018.0
20260831082905 70 0 0.0 0.0 0.00 0.00 0.00 98 1017.9
20260831082405 70 0 0.0 0.0 0.00 0.00 0.00 98 1017.9
20260831081905 70 0 0.0 0.0 0.00 0.00 0.00 98 1018.0
20260831081404 70 0 0.0 0.0 0.00 0.00 0.00 98 1018.0
20260831080849 70 0 0.0 0.0 0.00 0.00 0.00 98 1018.1
20260831080617 71 0 0.0 0.0 0.00 0.00 0.00 98 1018.1
20260831080455 71 0 0.0 0.0 0.00 0.00 0.00 98 1018.1
20260831075850 71 0 0.0 0.0 0.00 0.00 0.00 98 1018.1
20260831075351 71 0 0.0 0.0 0.00 0.00 0.00 98 1018.1
20260831074853 71 0 0.0 0.0 0.00 0.00 0.00 98 1018.1
20260831074849 71 0 0.0 0.0 0.00 0.00 0.00 98 1018.2
20260831074351 71 0 0.0 0.0 0.00 0.00 0.00 98 1018.2
20260831073849 71 0 0.0 2.0 0.00 0.00 0.00 98 1018.3
20260831073351 71 167 0.0 2.0 0.00 0.00 0.00 98 1018.3
20260831072849 70 0 0.0 1.0 0.00 0.00 0.00 98 1018.3
20260831072350 70 0 0.0 1.0 0.00 0.00 0.00 98 1018.3
20260831071833 70 0 0.0 1.0 0.00 0.00 0.00 98 1018.3
20260831071334 70 137 0.0 1.0 0.00 0.00 0.00 98 1018.4
20260831071311 71 0 0.0 0.0 0.00 0.00 0.00 98 1018.4
20260831070935 71 0 0.0 0.0 0.00 0.00 0.00 98 1018.4
20260831070321 71 0 0.0 0.0 0.00 0.00 0.00 98 1018.3
20260831070041 71 0 0.0 1.0 0.00 0.00 0.00 98 1018.3
20260831065926 71 0 0.0 1.0 0.00 0.00 0.00 98 1018.3
20260831065543 71 0 0.0 1.0 0.00 0.00 0.00 98 1018.3
20260831065426 71 0 0.0 1.0 0.00 0.00 0.00 98 1018.3
20260831064822 71 0 0.0 0.0 0.00 0.00 0.00 98 1018.4
20260831064319 72 0 0.0 0.0 0.00 0.00 0.00 98 1018.5
20260831063819 72 0 0.0 3.0 0.00 0.00 0.00 98 1018.4
20260831063319 72 0 1.0 3.0 0.00 0.00 0.00 98 1018.4
20260831062819 71 0 0.0 3.0 0.00 0.00 0.00 98 1018.4
20260831062319 71 0 0.0 2.0 0.00 0.00 0.00 97 1018.5
20260831061819 71 0 0.0 2.0 0.00 0.00 0.00 98 1018.4
20260831061543 71 0 0.0 1.0 0.00 0.00 0.00 97 1018.5
20260831061423 71 0 0.0 1.0 0.00 0.00 0.00 97 1018.5
20260831060819 71 0 0.0 2.0 0.00 0.00 0.00 97 1018.5
20260831060320 71 0 0.0 2.0 0.00 0.00 0.00 97 1018.5
20260831055819 71 0 0.0 2.0 0.00 0.00 0.00 97 1018.5
20260831055321 71 0 0.0 2.0 0.00 0.00 0.00 97 1018.5
20260831054818 71 0 1.0 4.0 0.00 0.00 0.00 97 1018.6
20260831054320 71 183 1.0 4.0 0.00 0.00 0.00 97 1018.6
20260831053818 71 172 0.0 3.0 0.00 0.00 0.00 97 1018.6
20260831053319 71 0 0.0 2.0 0.00 0.00 0.00 97 1018.6
20260831052818 71 0 0.0 1.0 0.00 0.00 0.00 97 1018.6
20260831052318 71 0 0.0 0.0 0.00 0.00 0.00 97 1018.6
20260831051818 71 0 0.0 1.0 0.00 0.00 0.00 97 1018.6
20260831051319 71 0 0.0 1.0 0.00 0.00 0.00 97 1018.6
20260831050818 72 0 0.0 0.0 0.00 0.00 0.00 97 1018.6
20260831050319 72 0 0.0 2.0 0.00 0.00 0.00 97 1018.6
20260831045819 72 0 0.0 2.0 0.00 0.00 0.00 97 1018.7
20260831045318 72 177 0.0 2.0 0.00 0.00 0.00 97 1018.7
20260831044819 72 0 0.0 1.0 0.00 0.00 0.00 97 1018.7
20260831044314 72 112 0.0 1.0 0.00 0.00 0.00 97 1018.7
20260831043816 72 0 0.0 1.0 0.00 0.00 0.00 97 1018.7
20260831043315 72 194 0.0 2.0 0.00 0.00 0.00 97 1018.8
20260831042815 72 0 0.0 2.0 0.00 0.00 0.00 97 1018.9
20260831042539 72 0 0.0 1.0 0.00 0.00 0.00 97 1018.9
20260831042419 72 0 0.0 1.0 0.00 0.00 0.00 97 1018.9
20260831041815 72 0 0.0 1.0 0.00 0.00 0.00 97 1018.9
20260831041315 72 0 0.0 1.0 0.00 0.00 0.00 97 1018.9
20260831040814 73 303 0.0 1.0 0.00 0.00 0.00 97 1018.9
20260831040313 73 0 0.0 0.0 0.00 0.00 0.00 97 1018.9
20260831040039 73 0 0.0 0.0 0.00 0.00 0.00 97 1018.9
20260831035917 73 0 0.0 0.0 0.00 0.00 0.00 97 1018.9
20260831035313 73 0 0.0 1.0 0.00 0.00 0.00 97 1019.0
20260831034809 73 0 0.0 1.0 0.00 0.00 0.00 97 1018.9
20260831034310 73 0 0.0 0.0 0.00 0.00 0.00 97 1018.9
20260831033810 73 0 0.0 0.0 0.00 0.00 0.00 97 1018.9
20260831033310 73 0 0.0 5.0 0.00 0.00 0.00 97 1018.8
20260831032810 73 0 0.0 5.0 0.00 0.00 0.00 97 1018.9
20260831032534 73 0 0.0 2.0 0.00 0.00 0.00 97 1019.0
20260831032415 73 0 0.0 2.0 0.00 0.00 0.00 97 1019.0
20260831031811 74 0 0.0 2.0 0.00 0.00 0.00 97 1019.0
20260831031312 74 0 0.0 1.0 0.00 0.00 0.00 97 1019.0
20260831030812 74 0 0.0 2.0 0.00 0.00 0.00 97 1019.0
20260831030310 74 207 0.0 2.0 0.00 0.00 0.00 96 1019.0
20260831025807 74 187 0.0 2.0 0.00 0.00 0.00 96 1019.0
20260831025308 74 0 0.0 2.0 0.00 0.00 0.00 96 1018.9
20260831024805 74 0 0.0 1.0 0.00 0.00 0.00 96 1018.9
20260831024306 74 0 0.0 1.0 0.00 0.00 0.00 96 1018.9
20260831023806 74 0 0.0 0.0 0.00 0.00 0.00 96 1019.0
20260831023306 74 0 0.0 0.0 0.00 0.00 0.00 96 1019.0
20260831022806 74 0 0.0 1.0 0.00 0.00 0.00 96 1019.0
20260831022307 74 0 0.0 1.0 0.00 0.00 0.00 96 1018.9
20260831021806 74 0 0.0 1.0 0.00 0.00 0.00 96 1018.9
20260831021306 74 170 0.0 1.0 0.00 0.00 0.00 96 1018.9
20260831020806 74 0 0.0 1.0 0.00 0.00 0.00 96 1018.9
20260831020529 74 189 0.0 1.0 0.00 0.00 0.00 96 1018.8
20260831020409 74 189 0.0 1.0 0.00 0.00 0.00 96 1018.8
20260831015806 74 0 0.0 2.0 0.00 0.00 0.00 95 1018.9
20260831015306 74 0 0.0 2.0 0.00 0.00 0.00 95 1018.9
20260831014800 75 0 0.0 0.0 0.00 0.00 0.00 95 1018.8
20260831014300 75 0 0.0 0.0 0.00 0.00 0.00 95 1018.8
20260831013800 75 0 0.0 1.0 0.00 0.00 0.00 95 1018.7
20260831013300 75 0 0.0 1.0 0.00 0.00 0.00 95 1018.6
20260831012800 75 0 0.0 1.0 0.00 0.00 0.00 95 1018.6
20260831012736 75 0 0.0 0.0 0.00 0.00 0.00 95 1018.6
20260831012404 75 0 0.0 0.0 0.00 0.00 0.00 95 1018.6
20260831011801 75 0 0.0 2.0 0.00 0.00 0.00 94 1018.6
20260831011301 75 0 0.0 2.0 0.00 0.00 0.00 94 1018.6
20260831010758 75 190 0.0 1.0 0.00 0.00 0.00 94 1018.5
20260831010520 76 0 0.0 0.0 0.00 0.00 0.00 94 1018.4
20260831010400 75 175 0.0 1.0 0.00 0.00 0.00 94 1018.4
20260831005902 76 0 0.0 0.0 0.00 0.00 0.00 94 1018.4
20260831005258 76 0 0.0 0.0 0.00 0.00 0.00 94 1018.4
20260831004754 76 0 0.0 1.0 0.00 0.00 0.00 93 1018.4
20260831004525 76 0 0.0 1.0 0.00 0.00 0.00 93 1018.4
20260831004359 76 0 0.0 1.0 0.00 0.00 0.00 93 1018.4